TimeMST,TemperatureF,Dew PointF,Humidity,Sea Level PressureIn,VisibilityMPH,Wind Direction,Wind SpeedMPH,Gust SpeedMPH,PrecipitationIn,Events,Conditions,WindDirDegrees,DateUTC
12:53 AM,45.0,28.0,52,29.92,10.0,North,9.2,-,N/A,,Overcast,350,2012-11-08 07:53:00
1:53 AM,41.0,27.0,57,29.95,10.0,North,4.6,-,N/A,,Overcast,350,2012-11-08 08:53:00
2:53 AM,39.9,28.9,65,29.96,10.0,NNW,4.6,-,N/A,,Overcast,330,2012-11-08 09:53:00
3:53 AM,39.0,28.9,67,29.96,10.0,Calm,Calm,-,N/A,,Overcast,0,2012-11-08 10:53:00
4:53 AM,37.9,28.9,70,29.99,10.0,Calm,Calm,-,N/A,,Overcast,0,2012-11-08 11:53:00
5:53 AM,35.1,28.0,76,30.02,10.0,Calm,Calm,-,N/A,,Overcast,0,2012-11-08 12:53:00
6:53 AM,37.0,30.0,76,30.00,10.0,South,3.5,-,N/A,,Overcast,170,2012-11-08 13:53:00
7:53 AM,39.9,28.9,65,30.01,10.0,Calm,Calm,-,N/A,,Overcast,0,2012-11-08 14:53:00
8:53 AM,43.0,27.0,53,30.01,10.0,SE,9.2,-,N/A,,Overcast,130,2012-11-08 15:53:00
9:53 AM,45.0,26.1,48,29.99,10.0,ESE,16.1,-,N/A,,Clear,110,2012-11-08 16:53:00
10:53 AM,46.9,26.1,44,29.94,10.0,SE,16.1,24.2,N/A,,Clear,130,2012-11-08 17:53:00
11:53 AM,50.0,26.1,39,29.87,10.0,SE,17.3,29.9,N/A,,Clear,130,2012-11-08 18:53:00
12:53 PM,51.1,25.0,36,29.83,10.0,SE,13.8,26.5,N/A,,Clear,130,2012-11-08 19:53:00
1:53 PM,52.0,26.1,37,29.80,10.0,SE,17.3,26.5,N/A,,Clear,130,2012-11-08 20:53:00
2:53 PM,51.1,26.1,38,29.77,10.0,SE,19.6,27.6,N/A,,Clear,130,2012-11-08 21:53:00
3:53 PM,50.0,25.0,38,29.77,10.0,SE,12.7,-,N/A,,Clear,140,2012-11-08 22:53:00
4:53 PM,46.9,25.0,42,29.78,10.0,ENE,6.9,-,N/A,,Clear,70,2012-11-08 23:53:00
5:53 PM,39.9,28.9,65,29.81,10.0,NE,5.8,-,N/A,,Clear,50,2012-11-09 00:53:00
6:53 PM,36.0,28.0,73,29.84,10.0,WNW,12.7,-,N/A,,Clear,300,2012-11-09 01:53:00
7:53 PM,33.1,28.0,82,29.83,10.0,NNW,10.4,-,N/A,,Clear,330,2012-11-09 02:53:00
8:53 PM,30.0,26.1,85,29.82,10.0,NW,5.8,-,N/A,,Clear,310,2012-11-09 03:53:00
9:53 PM,27.0,25.0,92,29.81,10.0,NNW,5.8,-,N/A,,Clear,330,2012-11-09 04:53:00
10:53 PM,26.1,25.0,96,29.78,10.0,NW,8.1,-,N/A,,Clear,310,2012-11-09 05:53:00
11:53 PM,26.1,24.1,92,29.74,10.0,NW,5.8,-,N/A,,Clear,320,2012-11-09 06:53:00